Time,TemperatureF,DewpointF,PressureIn,WindDirection,WindDirectionDegrees,WindSpeedMPH,WindSpeedGustMPH,Humidity,HourlyPrecipIn,Conditions,Clouds,dailyrainin,SoftwareType,DateUTC
2013-03-24 00:00:00,41.3,23.6,30.02,West,280,0.0,3.0,49,0.00,,---,0.00,VWS V14.01,2013-03-24 04:00:00,
2013-03-24 00:05:00,41.2,23.5,30.02,NE,37,0.0,1.0,49,0.00,,---,0.00,VWS V14.01,2013-03-24 04:05:00,
2013-03-24 00:10:00,41.0,23.8,30.02,NE,36,0.0,1.0,50,0.00,,---,0.00,VWS V14.01,2013-03-24 04:10:00,
2013-03-24 00:15:00,40.7,24.0,30.02,NE,36,0.0,1.0,51,0.00,,---,0.00,VWS V14.01,2013-03-24 04:15:00,
2013-03-24 00:20:00,40.4,23.7,30.02,NE,46,0.0,1.0,51,0.00,,---,0.00,VWS V14.01,2013-03-24 04:20:00,
2013-03-24 00:25:00,40.2,24.0,30.02,NNW,345,1.0,2.0,52,0.00,,---,0.00,VWS V14.01,2013-03-24 04:25:00,
2013-03-24 00:30:00,40.0,24.3,30.02,ESE,123,1.0,2.0,53,0.00,,---,0.00,VWS V14.01,2013-03-24 04:30:00,
2013-03-24 00:35:00,39.9,24.2,30.02,ESE,103,0.0,3.0,53,0.00,,---,0.00,VWS V14.01,2013-03-24 04:35:00,
2013-03-24 00:40:00,39.7,24.0,30.02,NNE,19,1.0,3.0,53,0.00,,---,0.00,VWS V14.01,2013-03-24 04:40:00,
2013-03-24 00:45:00,39.6,23.9,30.02,ENE,72,1.0,3.0,53,0.00,,---,0.00,VWS V14.01,2013-03-24 04:45:00,
2013-03-24 00:50:00,39.4,23.7,30.02,SE,129,0.0,3.0,53,0.00,,---,0.00,VWS V14.01,2013-03-24 04:50:00,
2013-03-24 00:55:00,39.3,23.6,30.02,North,352,0.0,3.0,53,0.00,,---,0.00,VWS V14.01,2013-03-24 04:55:00,
2013-03-24 01:00:00,39.2,24.0,30.02,ESE,109,0.0,3.0,54,0.00,,---,0.00,VWS V14.01,2013-03-24 05:00:00,
2013-03-24 01:05:00,38.9,23.7,30.02,NNW,342,0.0,2.0,54,0.00,,---,0.00,VWS V14.01,2013-03-24 05:05:00,
2013-03-24 01:10:00,38.7,23.9,30.02,WSW,248,0.0,2.0,55,0.00,,---,0.00,VWS V14.01,2013-03-24 05:10:00,
2013-03-24 01:15:00,38.4,23.7,30.02,WSW,239,0.0,2.0,55,0.00,,---,0.00,VWS V14.01,2013-03-24 05:15:00,
2013-03-24 01:20:00,38.1,23.4,30.01,NW,325,1.0,3.0,55,0.00,,---,0.00,VWS V14.01,2013-03-24 05:20:00,
2013-03-24 01:25:00,38.0,23.3,30.01,WNW,299,1.0,3.0,55,0.00,,---,0.00,VWS V14.01,2013-03-24 05:25:00,
2013-03-24 01:30:00,37.8,23.5,30.00,NNW,331,1.0,3.0,56,0.00,,---,0.00,VWS V14.01,2013-03-24 05:30:00,
2013-03-24 01:35:00,37.7,23.0,30.01,ESE,116,0.0,1.0,55,0.00,,---,0.00,VWS V14.01,2013-03-24 05:35:00,
2013-03-24 01:40:00,37.6,23.3,30.02,SW,231,0.0,1.0,56,0.00,,---,0.00,VWS V14.01,2013-03-24 05:40:00,
2013-03-24 01:45:00,37.4,23.1,30.02,South,181,0.0,1.0,56,0.00,,---,0.00,VWS V14.01,2013-03-24 05:45:00,
2013-03-24 01:50:00,37.5,23.2,30.03,NW,325,2.0,4.0,56,0.00,,---,0.00,VWS V14.01,2013-03-24 05:50:00,
2013-03-24 01:55:00,37.6,22.9,30.03,NE,40,0.0,4.0,55,0.00,,---,0.00,VWS V14.01,2013-03-24 05:55:00,
2013-03-24 02:00:00,37.5,22.8,30.03,North,355,1.0,4.0,55,0.00,,---,0.00,VWS V14.01,2013-03-24 06:00:00,
2013-03-24 02:05:00,37.1,22.9,30.02,North,356,1.0,1.0,56,0.00,,---,0.00,VWS V14.01,2013-03-24 06:05:00,
2013-03-24 02:10:00,36.8,23.0,30.02,North,355,0.0,1.0,57,0.00,,---,0.00,VWS V14.01,2013-03-24 06:10:00,
2013-03-24 02:15:00,36.5,22.7,30.03,North,356,0.0,1.0,57,0.00,,---,0.00,VWS V14.01,2013-03-24 06:15:00,
2013-03-24 02:20:00,36.3,22.5,30.02,North,355,0.0,1.0,57,0.00,,---,0.00,VWS V14.01,2013-03-24 06:20:00,
2013-03-24 02:25:00,36.1,22.8,30.02,North,355,0.0,1.0,58,0.00,,---,0.00,VWS V14.01,2013-03-24 06:25:00,
2013-03-24 02:30:00,35.9,22.6,30.02,North,356,0.0,1.0,58,0.00,,---,0.00,VWS V14.01,2013-03-24 06:30:00,
2013-03-24 02:35:00,35.7,22.4,30.01,NNE,23,0.0,2.0,58,0.00,,---,0.00,VWS V14.01,2013-03-24 06:35:00,
2013-03-24 02:40:00,35.7,22.4,30.01,NW,314,0.0,2.0,58,0.00,,---,0.00,VWS V14.01,2013-03-24 06:40:00,
2013-03-24 02:45:00,35.6,22.3,30.01,NW,314,0.0,2.0,58,0.00,,---,0.00,VWS V14.01,2013-03-24 06:45:00,
2013-03-24 02:50:00,35.5,22.2,30.01,NW,314,0.0,2.0,58,0.00,,---,0.00,VWS V14.01,2013-03-24 06:50:00,
2013-03-24 02:55:00,35.3,22.0,30.01,NW,313,0.0,2.0,58,0.00,,---,0.00,VWS V14.01,2013-03-24 06:55:00,
2013-03-24 03:00:00,35.3,22.0,30.01,NW,314,0.0,2.0,58,0.00,,---,0.00,VWS V14.01,2013-03-24 07:00:00,
2013-03-24 03:05:00,35.3,22.4,30.01,West,281,0.0,1.0,59,0.00,,---,0.00,VWS V14.01,2013-03-24 07:05:00,
2013-03-24 03:10:00,35.1,22.6,30.01,West,281,0.0,1.0,60,0.00,,---,0.00,VWS V14.01,2013-03-24 07:10:00,
2013-03-24 03:15:00,34.8,22.3,30.01,West,281,0.0,1.0,60,0.00,,---,0.00,VWS V14.01,2013-03-24 07:15:00,
2013-03-24 03:20:00,34.5,22.8,30.01,West,281,0.0,1.0,62,0.00,,---,0.00,VWS V14.01,2013-03-24 07:20:00,
2013-03-24 03:25:00,34.3,23.0,30.01,West,281,0.0,1.0,63,0.00,,---,0.00,VWS V14.01,2013-03-24 07:25:00,
2013-03-24 03:30:00,34.0,23.1,30.02,West,281,0.0,1.0,64,0.00,,---,0.00,VWS V14.01,2013-03-24 07:30:00,
2013-03-24 03:35:00,33.7,22.8,30.02,West,281,0.0,0.0,64,0.00,,---,0.00,VWS V14.01,2013-03-24 07:35:00,
2013-03-24 03:40:00,33.5,22.6,30.02,West,280,0.0,0.0,64,0.00,,---,0.00,VWS V14.01,2013-03-24 07:40:00,
2013-03-24 03:45:00,33.3,22.8,30.03,West,281,0.0,0.0,65,0.00,,---,0.00,VWS V14.01,2013-03-24 07:45:00,
2013-03-24 03:50:00,33.2,23.1,30.03,West,281,0.0,0.0,66,0.00,,---,0.00,VWS V14.01,2013-03-24 07:50:00,
2013-03-24 03:55:00,33.1,23.0,30.03,West,281,0.0,0.0,66,0.00,,---,0.00,VWS V14.01,2013-03-24 07:55:00,
2013-03-24 04:00:00,33.0,22.9,30.03,West,281,0.0,0.0,66,0.00,,---,0.00,VWS V14.01,2013-03-24 08:00:00,
2013-03-24 04:05:00,32.9,22.8,30.03,West,281,0.0,0.0,66,0.00,,---,0.00,VWS V14.01,2013-03-24 08:05:00,
2013-03-24 04:10:00,32.8,22.7,30.03,West,281,0.0,0.0,66,0.00,,---,0.00,VWS V14.01,2013-03-24 08:10:00,
2013-03-24 04:15:00,32.7,23.0,30.03,West,281,0.0,0.0,67,0.00,,---,0.00,VWS V14.01,2013-03-24 08:15:00,
2013-03-24 04:20:00,32.6,23.2,30.03,West,281,0.0,0.0,68,0.00,,---,0.00,VWS V14.01,2013-03-24 08:20:00,
2013-03-24 04:25:00,32.4,23.0,30.03,West,281,0.0,0.0,68,0.00,,---,0.00,VWS V14.01,2013-03-24 08:25:00,
2013-03-24 04:30:00,32.1,23.1,30.03,West,281,0.0,0.0,69,0.00,,---,0.00,VWS V14.01,2013-03-24 08:30:00,
2013-03-24 04:35:00,31.9,22.9,30.03,West,281,0.0,0.0,69,0.00,,---,0.00,VWS V14.01,2013-03-24 08:35:00,
2013-03-24 04:40:00,31.7,23.0,30.03,West,281,0.0,0.0,70,0.00,,---,0.00,VWS V14.01,2013-03-24 08:40:00,
2013-03-24 04:45:00,31.7,23.0,30.02,West,281,0.0,0.0,70,0.00,,---,0.00,VWS V14.01,2013-03-24 08:45:00,
2013-03-24 04:50:00,31.8,23.1,30.02,West,281,0.0,0.0,70,0.00,,---,0.00,VWS V14.01,2013-03-24 08:50:00,
2013-03-24 04:55:00,31.8,23.1,30.03,West,281,0.0,0.0,70,0.00,,---,0.00,VWS V14.01,2013-03-24 08:55:00,
2013-03-24 05:00:00,31.8,23.5,30.03,West,281,0.0,0.0,71,0.00,,---,0.00,VWS V14.01,2013-03-24 09:00:00,
2013-03-24 05:05:00,31.8,23.5,30.03,West,281,0.0,0.0,71,0.00,,---,0.00,VWS V14.01,2013-03-24 09:05:00,
2013-03-24 05:10:00,31.7,23.7,30.03,West,281,0.0,0.0,72,0.00,,---,0.00,VWS V14.01,2013-03-24 09:10:00,
2013-03-24 05:15:00,31.7,23.7,30.03,West,281,0.0,0.0,72,0.00,,---,0.00,VWS V14.01,2013-03-24 09:15:00,
2013-03-24 05:20:00,31.8,23.1,30.02,West,281,0.0,0.0,70,0.00,,---,0.00,VWS V14.01,2013-03-24 09:20:00,
2013-03-24 05:25:00,31.9,23.2,30.02,West,281,0.0,0.0,70,0.00,,---,0.00,VWS V14.01,2013-03-24 09:25:00,
2013-03-24 05:30:00,31.9,23.2,30.01,West,281,0.0,0.0,70,0.00,,---,0.00,VWS V14.01,2013-03-24 09:30:00,
2013-03-24 05:35:00,31.9,23.9,30.01,West,281,0.0,0.0,72,0.00,,---,0.00,VWS V14.01,2013-03-24 09:35:00,
2013-03-24 05:40:00,31.8,24.1,30.01,West,281,0.0,0.0,73,0.00,,---,0.00,VWS V14.01,2013-03-24 09:40:00,
2013-03-24 05:45:00,31.7,24.0,30.01,West,281,0.0,0.0,73,0.00,,---,0.00,VWS V14.01,2013-03-24 09:45:00,
2013-03-24 05:50:00,31.6,24.0,30.00,West,281,0.0,0.0,73,0.00,,---,0.00,VWS V14.01,2013-03-24 09:50:00,
2013-03-24 05:55:00,31.6,24.0,30.00,West,281,0.0,0.0,73,0.00,,---,0.00,VWS V14.01,2013-03-24 09:55:00,
2013-03-24 06:00:00,31.6,24.3,30.00,West,281,0.0,0.0,74,0.00,,---,0.00,VWS V14.01,2013-03-24 10:00:00,
2013-03-24 06:05:00,31.6,24.3,30.01,West,281,0.0,0.0,74,0.00,,---,0.00,VWS V14.01,2013-03-24 10:05:00,
2013-03-24 06:10:00,31.5,24.2,30.01,West,281,0.0,0.0,74,0.00,,---,0.00,VWS V14.01,2013-03-24 10:10:00,
2013-03-24 06:15:00,31.4,24.1,30.01,West,281,0.0,0.0,74,0.00,,---,0.00,VWS V14.01,2013-03-24 10:15:00,
2013-03-24 06:20:00,31.4,24.1,30.01,West,281,0.0,0.0,74,0.00,,---,0.00,VWS V14.01,2013-03-24 10:20:00,
2013-03-24 06:25:00,31.4,24.1,30.01,West,281,0.0,0.0,74,0.00,,---,0.00,VWS V14.01,2013-03-24 10:25:00,
2013-03-24 06:30:00,31.5,24.2,30.01,West,281,0.0,0.0,74,0.00,,---,0.00,VWS V14.01,2013-03-24 10:30:00,
2013-03-24 06:35:00,31.5,24.2,30.01,West,281,0.0,0.0,74,0.00,,---,0.00,VWS V14.01,2013-03-24 10:35:00,
2013-03-24 06:40:00,31.6,24.0,30.01,West,281,0.0,0.0,73,0.00,,---,0.00,VWS V14.01,2013-03-24 10:40:00,
2013-03-24 06:45:00,31.6,24.0,30.01,West,281,0.0,0.0,73,0.00,,---,0.00,VWS V14.01,2013-03-24 10:45:00,
2013-03-24 06:49:00,31.7,24.0,30.01,West,281,0.0,0.0,73,0.00,,---,0.00,VWS V14.01,2013-03-24 10:49:00,
2013-03-24 06:54:00,31.8,24.1,30.01,West,281,0.0,0.0,73,0.00,,---,0.00,VWS V14.01,2013-03-24 10:54:00,
2013-03-24 06:59:00,31.8,24.5,30.02,West,281,0.0,0.0,74,0.00,,---,0.00,VWS V14.01,2013-03-24 10:59:00,
2013-03-24 07:04:00,31.8,24.1,30.02,West,277,0.0,0.0,73,0.00,,---,0.00,VWS V14.01,2013-03-24 11:04:00,
2013-03-24 07:09:00,31.7,24.0,30.02,West,276,0.0,0.0,73,0.00,,---,0.00,VWS V14.01,2013-03-24 11:09:00,
2013-03-24 07:14:00,31.7,24.0,30.03,West,277,0.0,0.0,73,0.00,,---,0.00,VWS V14.01,2013-03-24 11:14:00,
2013-03-24 07:19:00,31.9,23.9,30.03,West,276,0.0,0.0,72,0.00,,---,0.00,VWS V14.01,2013-03-24 11:19:00,
2013-03-24 07:24:00,31.9,23.9,30.02,West,277,0.0,0.0,72,0.00,,---,0.00,VWS V14.01,2013-03-24 11:24:00,
2013-03-24 07:29:00,32.0,23.7,30.02,West,277,0.0,0.0,71,0.00,,---,0.00,VWS V14.01,2013-03-24 11:29:00,
2013-03-24 07:34:00,32.4,23.7,30.02,West,276,0.0,0.0,70,0.00,,---,0.00,VWS V14.01,2013-03-24 11:34:00,
2013-03-24 07:39:00,32.5,23.8,30.02,West,277,0.0,0.0,70,0.00,,---,0.00,VWS V14.01,2013-03-24 11:39:00,
2013-03-24 07:44:00,32.6,23.6,30.01,West,278,0.0,0.0,69,0.00,,---,0.00,VWS V14.01,2013-03-24 11:44:00,
2013-03-24 07:49:00,32.9,23.5,30.00,NNW,335,0.0,0.0,68,0.00,,---,0.00,VWS V14.01,2013-03-24 11:49:00,
2013-03-24 07:54:00,33.2,23.8,30.00,NNW,335,0.0,0.0,68,0.00,,---,0.00,VWS V14.01,2013-03-24 11:54:00,
2013-03-24 07:59:00,33.5,23.4,30.01,NNW,335,0.0,0.0,66,0.00,,---,0.00,VWS V14.01,2013-03-24 11:59:00,
2013-03-24 08:04:00,33.8,24.4,30.01,NNW,335,0.0,0.0,68,0.00,,---,0.00,VWS V14.01,2013-03-24 12:04:00,
2013-03-24 08:09:00,33.9,24.1,30.01,NNW,334,0.0,0.0,67,0.00,,---,0.00,VWS V14.01,2013-03-24 12:09:00,
2013-03-24 08:14:00,34.1,23.6,30.02,WSW,239,0.0,1.0,65,0.00,,---,0.00,VWS V14.01,2013-03-24 12:14:00,
2013-03-24 08:19:00,34.4,24.2,30.02,WSW,239,0.0,1.0,66,0.00,,---,0.00,VWS V14.01,2013-03-24 12:19:00,
2013-03-24 08:24:00,34.6,24.1,30.02,WSW,239,0.0,1.0,65,0.00,,---,0.00,VWS V14.01,2013-03-24 12:24:00,
2013-03-24 08:29:00,34.8,24.6,30.02,WSW,239,0.0,1.0,66,0.00,,---,0.00,VWS V14.01,2013-03-24 12:29:00,
2013-03-24 08:34:00,35.2,24.6,30.01,WSW,241,0.0,1.0,65,0.00,,---,0.00,VWS V14.01,2013-03-24 12:34:00,
2013-03-24 08:39:00,35.5,24.2,30.01,WSW,239,1.0,1.0,63,0.00,,---,0.00,VWS V14.01,2013-03-24 12:39:00,
2013-03-24 08:44:00,35.8,23.7,30.00,North,350,1.0,2.0,61,0.00,,---,0.00,VWS V14.01,2013-03-24 12:44:00,
2013-03-24 08:49:00,36.2,23.3,30.00,NW,321,0.0,3.0,59,0.00,,---,0.00,VWS V14.01,2013-03-24 12:49:00,
2013-03-24 08:54:00,36.5,23.5,29.99,NE,37,1.0,3.0,59,0.00,,---,0.00,VWS V14.01,2013-03-24 12:54:00,
2013-03-24 08:59:00,36.9,23.5,29.98,WSW,242,1.0,3.0,58,0.00,,---,0.00,VWS V14.01,2013-03-24 12:59:00,
2013-03-24 09:04:00,37.3,24.3,29.98,North,359,0.0,1.0,59,0.00,,---,0.00,VWS V14.01,2013-03-24 13:04:00,
2013-03-24 09:09:00,37.5,23.7,29.98,ENE,76,0.0,2.0,57,0.00,,---,0.00,VWS V14.01,2013-03-24 13:09:00,
2013-03-24 09:14:00,37.7,23.9,29.98,North,360,0.0,2.0,57,0.00,,---,0.00,VWS V14.01,2013-03-24 13:14:00,
2013-03-24 09:19:00,37.9,24.0,29.97,WNW,301,0.0,2.0,57,0.00,,---,0.00,VWS V14.01,2013-03-24 13:19:00,
2013-03-24 09:24:00,38.1,23.8,29.97,NW,321,0.0,2.0,56,0.00,,---,0.00,VWS V14.01,2013-03-24 13:24:00,
2013-03-24 09:29:00,38.3,24.4,29.97,ESE,113,0.0,2.0,57,0.00,,---,0.00,VWS V14.01,2013-03-24 13:29:00,
2013-03-24 09:34:00,38.3,24.0,29.97,East,97,0.0,1.0,56,0.00,,---,0.00,VWS V14.01,2013-03-24 13:34:00,
2013-03-24 09:39:00,38.4,24.1,29.96,NNW,331,3.0,3.0,56,0.00,,---,0.00,VWS V14.01,2013-03-24 13:39:00,
2013-03-24 09:44:00,38.6,23.4,29.96,ESE,123,1.0,4.0,54,0.00,,---,0.00,VWS V14.01,2013-03-24 13:44:00,
2013-03-24 09:49:00,38.7,22.6,29.96,NNW,332,1.0,5.0,52,0.00,,---,0.00,VWS V14.01,2013-03-24 13:49:00,
2013-03-24 09:54:00,38.8,22.7,29.96,SSE,161,0.0,5.0,52,0.00,,---,0.00,VWS V14.01,2013-03-24 13:54:00,
2013-03-24 09:59:00,39.2,23.5,29.95,NW,315,0.0,5.0,53,0.00,,---,0.00,VWS V14.01,2013-03-24 13:59:00,
2013-03-24 10:04:00,39.5,22.9,29.95,ESE,118,0.0,2.0,51,0.00,,---,0.00,VWS V14.01,2013-03-24 14:04:00,
2013-03-24 10:09:00,39.7,22.1,29.95,East,99,0.0,2.0,49,0.00,,---,0.00,VWS V14.01,2013-03-24 14:09:00,
2013-03-24 10:14:00,39.8,22.7,29.95,East,101,1.0,3.0,50,0.00,,---,0.00,VWS V14.01,2013-03-24 14:14:00,
2013-03-24 10:19:00,39.9,22.3,29.95,SE,132,2.0,3.0,49,0.00,,---,0.00,VWS V14.01,2013-03-24 14:19:00,
2013-03-24 10:24:00,40.0,22.4,29.95,ENE,76,0.0,3.0,49,0.00,,---,0.00,VWS V14.01,2013-03-24 14:24:00,
2013-03-24 10:29:00,40.4,22.8,29.94,East,92,1.0,3.0,49,0.00,,---,0.00,VWS V14.01,2013-03-24 14:29:00,
2013-03-24 10:34:00,40.6,23.0,29.95,ESE,107,1.0,3.0,49,0.00,,---,0.00,VWS V14.01,2013-03-24 14:34:00,
2013-03-24 10:39:00,40.5,21.9,29.94,SE,131,0.0,3.0,47,0.00,,---,0.00,VWS V14.01,2013-03-24 14:39:00,
2013-03-24 10:44:00,40.4,22.8,29.94,East,79,0.0,3.0,49,0.00,,---,0.00,VWS V14.01,2013-03-24 14:44:00,
2013-03-24 10:49:00,40.8,23.1,29.94,East,79,0.0,3.0,49,0.00,,---,0.00,VWS V14.01,2013-03-24 14:49:00,
2013-03-24 10:54:00,41.0,22.8,29.94,SE,129,0.0,3.0,48,0.00,,---,0.00,VWS V14.01,2013-03-24 14:54:00,
2013-03-24 10:59:00,40.9,22.2,29.94,ESE,117,0.0,3.0,47,0.00,,---,0.00,VWS V14.01,2013-03-24 14:59:00,
2013-03-24 11:04:00,41.0,22.3,29.94,NNE,26,1.0,2.0,47,0.00,,---,0.00,VWS V14.01,2013-03-24 15:04:00,
2013-03-24 11:09:00,41.0,22.3,29.94,SE,131,1.0,2.0,47,0.00,,---,0.00,VWS V14.01,2013-03-24 15:09:00,
2013-03-24 11:14:00,41.0,22.3,29.94,SSE,152,1.0,3.0,47,0.00,,---,0.00,VWS V14.01,2013-03-24 15:14:00,
2013-03-24 11:19:00,41.1,22.9,29.93,SSE,150,0.0,3.0,48,0.00,,---,0.00,VWS V14.01,2013-03-24 15:19:00,
2013-03-24 11:24:00,41.1,23.4,29.93,ESE,119,1.0,3.0,49,0.00,,---,0.00,VWS V14.01,2013-03-24 15:24:00,
2013-03-24 11:29:00,41.2,22.5,29.93,SE,128,0.0,3.0,47,0.00,,---,0.00,VWS V14.01,2013-03-24 15:29:00,
2013-03-24 11:34:00,41.3,23.1,29.93,East,84,0.0,1.0,48,0.00,,---,0.00,VWS V14.01,2013-03-24 15:34:00,
2013-03-24 11:39:00,41.4,22.7,29.93,SE,136,0.0,3.0,47,0.00,,---,0.00,VWS V14.01,2013-03-24 15:39:00,
2013-03-24 11:44:00,41.4,23.2,29.93,SE,133,0.0,3.0,48,0.00,,---,0.00,VWS V14.01,2013-03-24 15:44:00,
2013-03-24 11:49:00,41.3,22.1,29.92,ESE,122,0.0,6.0,46,0.00,,---,0.00,VWS V14.01,2013-03-24 15:49:00,
2013-03-24 11:54:00,41.5,23.3,29.92,SE,128,0.0,6.0,48,0.00,,---,0.00,VWS V14.01,2013-03-24 15:54:00,
2013-03-24 11:59:00,41.5,22.3,29.92,SE,125,0.0,6.0,46,0.00,,---,0.00,VWS V14.01,2013-03-24 15:59:00,
2013-03-24 12:04:00,41.5,22.3,29.91,NW,309,1.0,2.0,46,0.00,,---,0.00,VWS V14.01,2013-03-24 16:04:00,
2013-03-24 12:09:00,41.5,22.8,29.91,NNW,335,0.0,2.0,47,0.00,,---,0.00,VWS V14.01,2013-03-24 16:09:00,
2013-03-24 12:14:00,41.7,22.5,29.91,SSE,163,2.0,2.0,46,0.00,,---,0.00,VWS V14.01,2013-03-24 16:14:00,
2013-03-24 12:19:00,41.7,23.0,29.91,SE,136,0.0,2.0,47,0.00,,---,0.00,VWS V14.01,2013-03-24 16:19:00,
2013-03-24 12:24:00,41.9,23.2,29.90,ENE,58,0.0,2.0,47,0.00,,---,0.00,VWS V14.01,2013-03-24 16:24:00,
2013-03-24 12:29:00,41.8,22.5,29.89,East,84,1.0,3.0,46,0.00,,---,0.00,VWS V14.01,2013-03-24 16:29:00,
2013-03-24 12:34:00,41.7,22.5,29.89,SE,126,2.0,3.0,46,0.00,,---,0.00,VWS V14.01,2013-03-24 16:34:00,
2013-03-24 12:39:00,41.6,22.4,29.89,SE,134,0.0,3.0,46,0.00,,---,0.00,VWS V14.01,2013-03-24 16:39:00,
2013-03-24 12:44:00,41.7,21.9,29.89,SE,133,0.0,3.0,45,0.00,,---,0.00,VWS V14.01,2013-03-24 16:44:00,
2013-03-24 12:49:00,41.7,22.5,29.88,ESE,108,1.0,3.0,46,0.00,,---,0.00,VWS V14.01,2013-03-24 16:49:00,
2013-03-24 12:54:00,41.8,22.5,29.88,ESE,120,4.0,4.0,46,0.00,,---,0.00,VWS V14.01,2013-03-24 16:54:00,
2013-03-24 12:59:00,41.7,22.5,29.87,SSE,163,0.0,4.0,46,0.00,,---,0.00,VWS V14.01,2013-03-24 16:59:00,
2013-03-24 13:04:00,41.9,23.2,29.87,East,101,1.0,1.0,47,0.00,,---,0.00,VWS V14.01,2013-03-24 17:04:00,
2013-03-24 13:09:00,41.9,22.6,29.86,SE,126,0.0,2.0,46,0.00,,---,0.00,VWS V14.01,2013-03-24 17:09:00,
2013-03-24 13:14:00,42.1,23.3,29.85,SE,138,0.0,3.0,47,0.00,,---,0.00,VWS V14.01,2013-03-24 17:14:00,
2013-03-24 13:19:00,42.3,22.5,29.85,SE,145,1.0,3.0,45,0.00,,---,0.00,VWS V14.01,2013-03-24 17:19:00,
2013-03-24 13:24:00,42.4,23.1,29.85,NE,50,0.0,3.0,46,0.00,,---,0.00,VWS V14.01,2013-03-24 17:24:00,
2013-03-24 13:29:00,42.9,23.6,29.84,North,9,0.0,3.0,46,0.00,,---,0.00,VWS V14.01,2013-03-24 17:29:00,
2013-03-24 13:34:00,43.1,23.2,29.84,East,95,0.0,4.0,45,0.00,,---,0.00,VWS V14.01,2013-03-24 17:34:00,
2013-03-24 13:39:00,43.2,23.3,29.83,SE,132,0.0,4.0,45,0.00,,---,0.00,VWS V14.01,2013-03-24 17:39:00,
2013-03-24 13:44:00,43.7,23.2,29.83,SE,126,3.0,4.0,44,0.00,,---,0.00,VWS V14.01,2013-03-24 17:44:00,
2013-03-24 13:49:00,43.4,23.5,29.82,SE,125,0.0,4.0,45,0.00,,---,0.00,VWS V14.01,2013-03-24 17:49:00,
2013-03-24 13:54:00,43.4,23.5,29.82,NE,51,1.0,4.0,45,0.00,,---,0.00,VWS V14.01,2013-03-24 17:54:00,
2013-03-24 13:59:00,43.6,23.7,29.82,SE,136,0.0,4.0,45,0.00,,---,0.00,VWS V14.01,2013-03-24 17:59:00,
2013-03-24 14:04:00,43.4,23.0,29.82,SE,130,1.0,3.0,44,0.00,,---,0.00,VWS V14.01,2013-03-24 18:04:00,
2013-03-24 14:09:00,43.3,23.4,29.81,ESE,115,1.0,3.0,45,0.00,,---,0.00,VWS V14.01,2013-03-24 18:09:00,
2013-03-24 14:14:00,43.6,23.7,29.81,SSE,155,0.0,3.0,45,0.00,,---,0.00,VWS V14.01,2013-03-24 18:14:00,
2013-03-24 14:19:00,43.6,23.1,29.81,East,101,0.0,3.0,44,0.00,,---,0.00,VWS V14.01,2013-03-24 18:19:00,
2013-03-24 14:24:00,43.5,24.1,29.80,ENE,65,0.0,3.0,46,0.00,,---,0.00,VWS V14.01,2013-03-24 18:24:00,
2013-03-24 14:29:00,43.4,23.5,29.79,East,89,0.0,3.0,45,0.00,,---,0.00,VWS V14.01,2013-03-24 18:29:00,
2013-03-24 14:34:00,43.2,23.3,29.79,SE,138,1.0,4.0,45,0.00,,---,0.00,VWS V14.01,2013-03-24 18:34:00,
2013-03-24 14:39:00,43.0,23.6,29.78,SE,129,0.0,4.0,46,0.00,,---,0.00,VWS V14.01,2013-03-24 18:39:00,
2013-03-24 14:44:00,43.1,23.2,29.78,NE,46,1.0,4.0,45,0.00,,---,0.00,VWS V14.01,2013-03-24 18:44:00,
2013-03-24 14:49:00,43.1,23.7,29.77,SE,142,0.0,4.0,46,0.00,,---,0.00,VWS V14.01,2013-03-24 18:49:00,
2013-03-24 14:54:00,43.2,24.4,29.77,East,79,0.0,4.0,47,0.00,,---,0.00,VWS V14.01,2013-03-24 18:54:00,
2013-03-24 14:59:00,43.3,23.9,29.77,SSE,155,0.0,4.0,46,0.00,,---,0.00,VWS V14.01,2013-03-24 18:59:00,
2013-03-24 15:04:00,43.3,23.4,29.76,ESE,117,1.0,2.0,45,0.00,,---,0.00,VWS V14.01,2013-03-24 19:04:00,
2013-03-24 15:09:00,43.1,23.7,29.76,SW,229,0.0,2.0,46,0.00,,---,0.00,VWS V14.01,2013-03-24 19:09:00,
2013-03-24 15:14:00,43.0,23.6,29.76,SE,135,3.0,3.0,46,0.00,,---,0.00,VWS V14.01,2013-03-24 19:14:00,
2013-03-24 15:19:00,42.8,23.5,29.75,ENE,64,0.0,3.0,46,0.00,,---,0.00,VWS V14.01,2013-03-24 19:19:00,
2013-03-24 15:24:00,42.9,23.6,29.76,SE,142,1.0,3.0,46,0.00,,---,0.00,VWS V14.01,2013-03-24 19:24:00,
2013-03-24 15:29:00,43.0,23.6,29.75,ESE,122,0.0,3.0,46,0.00,,---,0.00,VWS V14.01,2013-03-24 19:29:00,
2013-03-24 15:34:00,42.9,23.6,29.75,WSW,243,1.0,2.0,46,0.00,,---,0.00,VWS V14.01,2013-03-24 19:34:00,
2013-03-24 15:39:00,42.8,22.4,29.76,SSE,150,0.0,2.0,44,0.00,,---,0.00,VWS V14.01,2013-03-24 19:39:00,
2013-03-24 15:44:00,42.8,23.5,29.76,ENE,68,1.0,2.0,46,0.00,,---,0.00,VWS V14.01,2013-03-24 19:44:00,
2013-03-24 15:49:00,42.7,23.4,29.76,SE,131,0.0,2.0,46,0.00,,---,0.00,VWS V14.01,2013-03-24 19:49:00,
2013-03-24 15:54:00,42.5,22.7,29.75,SE,131,0.0,2.0,45,0.00,,---,0.00,VWS V14.01,2013-03-24 19:54:00,
2013-03-24 15:59:00,42.3,23.5,29.75,ESE,116,0.0,2.0,47,0.00,,---,0.00,VWS V14.01,2013-03-24 19:59:00,
2013-03-24 16:04:00,42.3,23.0,29.75,ESE,116,0.0,0.0,46,0.00,,---,0.00,VWS V14.01,2013-03-24 20:04:00,
2013-03-24 16:09:00,42.2,23.4,29.74,SE,124,0.0,2.0,47,0.00,,---,0.00,VWS V14.01,2013-03-24 20:09:00,
2013-03-24 16:14:00,42.2,23.4,29.74,SE,124,1.0,2.0,47,0.00,,---,0.00,VWS V14.01,2013-03-24 20:14:00,
2013-03-24 16:19:00,42.1,23.8,29.74,ESE,123,0.0,2.0,48,0.00,,---,0.00,VWS V14.01,2013-03-24 20:19:00,
2013-03-24 16:24:00,42.2,23.9,29.74,WNW,298,2.0,2.0,48,0.00,,---,0.00,VWS V14.01,2013-03-24 20:24:00,
2013-03-24 16:29:00,42.2,23.4,29.73,NNW,342,1.0,2.0,47,0.00,,---,0.00,VWS V14.01,2013-03-24 20:29:00,
2013-03-24 16:34:00,42.2,23.4,29.73,ESE,116,1.0,2.0,47,0.00,,---,0.00,VWS V14.01,2013-03-24 20:34:00,
2013-03-24 16:39:00,42.3,24.0,29.74,SSE,163,0.0,2.0,48,0.00,,---,0.00,VWS V14.01,2013-03-24 20:39:00,
2013-03-24 16:44:00,42.5,24.2,29.74,WSW,241,1.0,2.0,48,0.00,,---,0.00,VWS V14.01,2013-03-24 20:44:00,
2013-03-24 16:49:00,42.5,24.2,29.74,SE,126,0.0,4.0,48,0.00,,---,0.00,VWS V14.01,2013-03-24 20:49:00,
2013-03-24 16:54:00,42.5,24.2,29.74,SE,126,0.0,4.0,48,0.00,,---,0.00,VWS V14.01,2013-03-24 20:54:00,
2013-03-24 16:59:00,42.4,24.1,29.73,NW,308,0.0,4.0,48,0.00,,---,0.00,VWS V14.01,2013-03-24 20:59:00,
2013-03-24 17:04:00,42.4,24.6,29.73,NW,307,0.0,0.0,49,0.00,,---,0.00,VWS V14.01,2013-03-24 21:04:00,
2013-03-24 17:09:00,42.3,23.5,29.74,ENE,78,0.0,3.0,47,0.00,,---,0.00,VWS V14.01,2013-03-24 21:09:00,
2013-03-24 17:14:00,42.2,24.4,29.74,ESE,108,0.0,3.0,49,0.00,,---,0.00,VWS V14.01,2013-03-24 21:14:00,
2013-03-24 17:19:00,42.1,23.8,29.74,WNW,293,1.0,3.0,48,0.00,,---,0.00,VWS V14.01,2013-03-24 21:19:00,
2013-03-24 17:24:00,42.0,24.2,29.74,North,356,1.0,3.0,49,0.00,,---,0.00,VWS V14.01,2013-03-24 21:24:00,
2013-03-24 17:29:00,41.9,24.1,29.74,North,356,0.0,3.0,49,0.00,,---,0.00,VWS V14.01,2013-03-24 21:29:00,
2013-03-24 17:34:00,41.9,23.7,29.75,North,356,0.0,0.0,48,0.00,,---,0.00,VWS V14.01,2013-03-24 21:34:00,
2013-03-24 17:39:00,41.9,23.7,29.75,NE,43,0.0,0.0,48,0.00,,---,0.00,VWS V14.01,2013-03-24 21:39:00,
2013-03-24 17:44:00,41.9,24.1,29.76,SE,136,0.0,1.0,49,0.00,,---,0.00,VWS V14.01,2013-03-24 21:44:00,
2013-03-24 17:49:00,41.8,23.6,29.76,SE,136,0.0,1.0,48,0.00,,---,0.00,VWS V14.01,2013-03-24 21:49:00,
2013-03-24 17:54:00,41.8,24.1,29.76,SE,136,0.0,1.0,49,0.00,,---,0.00,VWS V14.01,2013-03-24 21:54:00,
2013-03-24 17:59:00,41.7,24.0,29.75,SE,136,0.0,1.0,49,0.00,,---,0.00,VWS V14.01,2013-03-24 21:59:00,
2013-03-24 18:04:00,41.6,23.9,29.75,SSE,165,0.0,2.0,49,0.00,,---,0.00,VWS V14.01,2013-03-24 22:04:00,
2013-03-24 18:09:00,41.6,23.9,29.75,SE,134,0.0,2.0,49,0.00,,---,0.00,VWS V14.01,2013-03-24 22:09:00,
2013-03-24 18:14:00,41.5,23.8,29.75,ESE,119,0.0,2.0,49,0.00,,---,0.00,VWS V14.01,2013-03-24 22:14:00,
2013-03-24 18:19:00,41.6,24.4,29.75,ESE,118,0.0,2.0,50,0.00,,---,0.00,VWS V14.01,2013-03-24 22:19:00,
2013-03-24 18:24:00,41.5,24.3,29.75,SE,141,1.0,2.0,50,0.00,,---,0.00,VWS V14.01,2013-03-24 22:24:00,
2013-03-24 18:29:00,41.5,24.7,29.75,SE,139,0.0,2.0,51,0.00,,---,0.00,VWS V14.01,2013-03-24 22:29:00,
2013-03-24 18:34:00,41.2,26.7,29.75,SE,124,1.0,1.0,56,0.00,,---,0.00,VWS V14.01,2013-03-24 22:34:00,
2013-03-24 18:39:00,40.5,26.9,29.76,ENE,62,0.0,2.0,58,0.00,,---,0.00,VWS V14.01,2013-03-24 22:39:00,
2013-03-24 18:44:00,40.1,26.9,29.76,South,191,3.0,3.0,59,0.00,,---,0.00,VWS V14.01,2013-03-24 22:44:00,
2013-03-24 18:49:00,39.6,28.1,29.76,ESE,114,2.0,3.0,63,0.00,,---,0.00,VWS V14.01,2013-03-24 22:49:00,
2013-03-24 18:54:00,39.2,28.1,29.76,SE,124,0.0,3.0,64,0.00,,---,0.00,VWS V14.01,2013-03-24 22:54:00,
2013-03-24 18:59:00,38.9,28.5,29.76,SE,129,0.0,3.0,66,0.00,,---,0.00,VWS V14.01,2013-03-24 22:59:00,
2013-03-24 19:04:00,38.5,28.5,29.76,SE,129,0.0,1.0,67,0.00,,---,0.00,VWS V14.01,2013-03-24 23:04:00,
2013-03-24 19:09:00,38.3,29.0,29.75,SE,136,0.0,1.0,69,0.00,,---,0.00,VWS V14.01,2013-03-24 23:09:00,
2013-03-24 19:14:00,38.0,29.1,29.76,East,94,1.0,1.0,70,0.00,,---,0.00,VWS V14.01,2013-03-24 23:14:00,
2013-03-24 19:19:00,37.7,29.2,29.76,SE,127,0.0,2.0,71,0.00,,---,0.00,VWS V14.01,2013-03-24 23:19:00,
2013-03-24 19:24:00,37.4,29.9,29.76,SE,127,0.0,2.0,74,0.00,,---,0.00,VWS V14.01,2013-03-24 23:24:00,
2013-03-24 19:29:00,37.2,29.7,29.76,SE,127,0.0,2.0,74,0.00,,---,0.00,VWS V14.01,2013-03-24 23:29:00,
2013-03-24 19:34:00,37.0,29.8,29.76,SE,127,0.0,0.0,75,0.00,,---,0.00,VWS V14.01,2013-03-24 23:34:00,
2013-03-24 19:39:00,36.8,30.0,29.76,SE,136,1.0,3.0,76,0.00,,---,0.00,VWS V14.01,2013-03-24 23:39:00,
2013-03-24 19:44:00,36.6,30.4,29.76,SE,129,0.0,4.0,78,0.00,,---,0.00,VWS V14.01,2013-03-24 23:44:00,
2013-03-24 19:49:00,36.4,30.8,29.76,SSE,158,0.0,4.0,80,0.00,,---,0.00,VWS V14.01,2013-03-24 23:49:00,
2013-03-24 19:54:00,36.2,30.9,29.75,ENE,65,0.0,4.0,81,0.00,,---,0.00,VWS V14.01,2013-03-24 23:54:00,
2013-03-24 19:59:00,35.9,30.6,29.76,SSE,149,0.0,4.0,81,0.00,,---,0.00,VWS V14.01,2013-03-24 23:59:00,
2013-03-24 20:04:00,35.7,31.0,29.76,SE,136,0.0,1.0,83,0.00,,---,0.00,VWS V14.01,2013-03-25 00:04:00,
2013-03-24 20:09:00,35.6,31.2,29.75,SE,142,1.0,1.0,84,0.00,,---,0.00,VWS V14.01,2013-03-25 00:09:00,
2013-03-24 20:14:00,35.3,31.0,29.75,SSE,155,0.0,1.0,84,0.00,,---,0.00,VWS V14.01,2013-03-25 00:14:00,
2013-03-24 20:19:00,35.1,31.3,29.75,SSE,150,0.0,1.0,86,0.00,,---,0.00,VWS V14.01,2013-03-25 00:19:00,
2013-03-24 20:24:00,35.0,31.2,29.76,SSE,149,0.0,1.0,86,0.00,,---,0.00,VWS V14.01,2013-03-25 00:24:00,
2013-03-24 20:29:00,34.8,31.3,29.76,NNE,30,1.0,1.0,87,0.00,,---,0.00,VWS V14.01,2013-03-25 00:29:00,
2013-03-24 20:34:00,34.5,31.0,29.75,ESE,120,0.0,2.0,87,0.00,,---,0.00,VWS V14.01,2013-03-25 00:34:00,
2013-03-24 20:39:00,34.3,31.1,29.75,ESE,121,0.0,2.0,88,0.00,,---,0.00,VWS V14.01,2013-03-25 00:39:00,
2013-03-24 20:44:00,34.0,31.1,29.75,ESE,113,1.0,3.0,89,0.00,,---,0.00,VWS V14.01,2013-03-25 00:44:00,
2013-03-24 20:49:00,33.9,31.0,29.75,ESE,120,0.0,3.0,89,0.00,,---,0.00,VWS V14.01,2013-03-25 00:49:00,
2013-03-24 20:54:00,33.8,31.2,29.75,ESE,118,0.0,3.0,90,0.00,,---,0.00,VWS V14.01,2013-03-25 00:54:00,
2013-03-24 20:59:00,33.7,31.1,29.75,ESE,123,0.0,3.0,90,0.00,,---,0.00,VWS V14.01,2013-03-25 00:59:00,
2013-03-24 21:04:00,33.6,31.0,29.74,SE,133,0.0,2.0,90,0.00,,---,0.00,VWS V14.01,2013-03-25 01:04:00,
2013-03-24 21:09:00,33.5,31.2,29.73,ESE,114,0.0,2.0,91,0.00,,---,0.00,VWS V14.01,2013-03-25 01:09:00,
2013-03-24 21:14:00,33.5,31.2,29.71,ESE,116,0.0,2.0,91,0.00,,---,0.00,VWS V14.01,2013-03-25 01:14:00,
2013-03-24 21:19:00,33.5,31.2,29.71,ESE,116,0.0,2.0,91,0.00,,---,0.00,VWS V14.01,2013-03-25 01:19:00,
2013-03-24 21:24:00,33.5,31.2,29.72,ESE,117,0.0,2.0,91,0.00,,---,0.00,VWS V14.01,2013-03-25 01:24:00,
2013-03-24 21:29:00,33.5,31.2,29.72,NE,53,0.0,2.0,91,0.00,,---,0.00,VWS V14.01,2013-03-25 01:29:00,
2013-03-24 21:34:00,33.5,31.4,29.73,NE,51,0.0,0.0,92,0.00,,---,0.00,VWS V14.01,2013-03-25 01:34:00,
2013-03-24 21:39:00,33.4,31.3,29.73,NE,51,0.0,0.0,92,0.00,,---,0.00,VWS V14.01,2013-03-25 01:39:00,
2013-03-24 21:44:00,33.5,31.4,29.73,NE,46,0.0,0.0,92,0.00,,---,0.00,VWS V14.01,2013-03-25 01:44:00,
2013-03-24 21:49:00,33.5,31.4,29.72,NE,46,0.0,1.0,92,0.00,,---,0.00,VWS V14.01,2013-03-25 01:49:00,
2013-03-24 21:54:00,33.6,31.5,29.72,NE,46,0.0,1.0,92,0.00,,---,0.00,VWS V14.01,2013-03-25 01:54:00,
2013-03-24 21:59:00,33.6,31.5,29.72,NNE,26,0.0,1.0,92,0.01,,---,0.01,VWS V14.01,2013-03-25 01:59:00,
2013-03-24 22:04:00,33.7,31.6,29.72,ESE,105,0.0,0.0,92,0.01,,---,0.01,VWS V14.01,2013-03-25 02:04:00,
2013-03-24 22:09:00,33.8,31.7,29.72,ESE,104,0.0,0.0,92,0.01,,---,0.01,VWS V14.01,2013-03-25 02:09:00,
2013-03-24 22:14:00,33.8,32.0,29.72,ESE,104,0.0,0.0,93,0.01,,---,0.01,VWS V14.01,2013-03-25 02:14:00,
2013-03-24 22:19:00,33.9,32.1,29.72,ESE,105,0.0,0.0,93,0.01,,---,0.01,VWS V14.01,2013-03-25 02:19:00,
2013-03-24 22:24:00,33.9,32.1,29.71,ESE,105,0.0,1.0,93,0.01,,---,0.01,VWS V14.01,2013-03-25 02:24:00,
2013-03-24 22:29:00,33.9,32.1,29.71,ESE,104,0.0,1.0,93,0.01,,---,0.01,VWS V14.01,2013-03-25 02:29:00,
2013-03-24 22:34:00,34.0,32.2,29.72,ESE,105,0.0,0.0,93,0.01,,---,0.01,VWS V14.01,2013-03-25 02:34:00,
2013-03-24 22:39:00,34.0,32.2,29.72,ESE,105,0.0,0.0,93,0.01,,---,0.01,VWS V14.01,2013-03-25 02:39:00,
2013-03-24 22:44:00,34.0,32.2,29.72,ESE,104,0.0,0.0,93,0.02,,---,0.02,VWS V14.01,2013-03-25 02:44:00,
2013-03-24 22:49:00,34.0,32.2,29.72,ESE,104,0.0,0.0,93,0.02,,---,0.02,VWS V14.01,2013-03-25 02:49:00,
2013-03-24 22:54:00,34.0,32.2,29.73,ESE,104,0.0,1.0,93,0.02,,---,0.02,VWS V14.01,2013-03-25 02:54:00,
2013-03-24 22:59:00,34.1,32.3,29.72,ESE,104,0.0,1.0,93,0.02,,---,0.02,VWS V14.01,2013-03-25 02:59:00,
2013-03-24 23:04:00,34.1,32.3,29.72,ESE,104,0.0,1.0,93,0.01,,---,0.02,VWS V14.01,2013-03-25 03:04:00,
2013-03-24 23:09:00,34.2,32.4,29.72,East,98,1.0,1.0,93,0.01,,---,0.02,VWS V14.01,2013-03-25 03:09:00,
2013-03-24 23:14:00,34.1,32.3,29.71,SSE,167,0.0,2.0,93,0.01,,---,0.02,VWS V14.01,2013-03-25 03:14:00,
2013-03-24 23:19:00,34.0,32.2,29.71,SE,124,0.0,2.0,93,0.02,,---,0.03,VWS V14.01,2013-03-25 03:19:00,
2013-03-24 23:24:00,33.9,32.1,29.70,SE,125,0.0,3.0,93,0.02,,---,0.03,VWS V14.01,2013-03-25 03:24:00,
2013-03-24 23:29:00,33.8,32.0,29.69,SE,137,0.0,3.0,93,0.02,,---,0.03,VWS V14.01,2013-03-25 03:29:00,
2013-03-24 23:34:00,33.7,31.9,29.69,SE,136,0.0,0.0,93,0.02,,---,0.03,VWS V14.01,2013-03-25 03:34:00,
2013-03-24 23:39:00,33.7,31.9,29.69,SE,132,0.0,1.0,93,0.02,,---,0.03,VWS V14.01,2013-03-25 03:39:00,
2013-03-24 23:44:00,33.7,31.9,29.69,SE,132,0.0,1.0,93,0.02,,---,0.03,VWS V14.01,2013-03-25 03:44:00,
2013-03-24 23:49:00,33.7,31.9,29.69,SE,132,0.0,1.0,93,0.02,,---,0.03,VWS V14.01,2013-03-25 03:49:00,
2013-03-24 23:54:00,33.7,31.9,29.68,SE,133,0.0,2.0,93,0.02,,---,0.03,VWS V14.01,2013-03-25 03:54:00,
2013-03-24 23:59:00,33.8,32.3,29.68,East,94,0.0,4.0,94,0.03,,---,0.04,VWS V14.01,2013-03-25 03:59:00,